contact:dominique.lefevre@mio.osupytheas.fr, maurice.libes@osupytheas.fr, didier.mallarino@osupytheas.fr
Project:EMSO http://www.emso-fr.org/EMSO-France
Depth: 2436.0 m
Title:EMSO Ligure Ouest : Data MII capteur MICROCAT
DateTime_Computer,Latitude,Longitude,Temperature,Conductivity,Pressure,DateTime_Instrument
DateTime_Computer,Latitude,Longitude,degC,S m-1,dbar,DateTime_Instrument
2022-04-14T00:00:30Z,42.805,6.029,13.2993,4.60033,2470.38,2022-4-14T02:02:08Z
2022-04-14T00:03:33Z,42.805,6.029,13.3000,4.60033,2470.39,2022-4-14T02:05:11Z
2022-04-14T00:06:36Z,42.805,6.029,13.3000,4.60034,2470.353,2022-4-14T02:08:15Z
2022-04-14T00:09:39Z,42.805,6.029,13.2999,4.60033,2470.366,2022-4-14T02:11:18Z
2022-04-14T00:12:43Z,42.805,6.029,13.2997,4.60035,2470.366,2022-4-14T02:14:21Z
2022-04-14T00:15:46Z,42.805,6.029,13.3000,4.60034,2470.357,2022-4-14T02:17:24Z
2022-04-14T00:18:49Z,42.805,6.029,13.2999,4.60034,2470.343,2022-4-14T02:20:27Z
2022-04-14T00:21:52Z,42.805,6.029,13.3000,4.60033,2470.366,2022-4-14T02:23:30Z
2022-04-14T00:24:55Z,42.805,6.029,13.2998,4.60034,2470.366,2022-4-14T02:26:33Z
2022-04-14T00:27:58Z,42.805,6.029,13.2999,4.60034,2470.39,2022-4-14T02:29:36Z
2022-04-14T00:31:01Z,42.805,6.029,13.3000,4.60035,2470.343,2022-4-14T02:32:40Z
2022-04-14T00:34:04Z,42.805,6.029,13.2998,4.60033,2470.343,2022-4-14T02:35:43Z
2022-04-14T00:37:07Z,42.805,6.029,13.3000,4.60034,2470.343,2022-4-14T02:38:46Z
2022-04-14T00:40:11Z,42.805,6.029,13.3000,4.60035,2470.343,2022-4-14T02:41:49Z
2022-04-14T00:43:14Z,42.805,6.029,13.2999,4.60034,2470.357,2022-4-14T02:44:52Z
2022-04-14T00:46:17Z,42.805,6.029,13.2998,4.60036,2470.366,2022-4-14T02:47:55Z
2022-04-14T00:49:20Z,42.805,6.029,13.2996,4.60034,2470.38,2022-4-14T02:50:58Z
2022-04-14T00:52:23Z,42.805,6.029,13.2999,4.60035,2470.366,2022-4-14T02:54:01Z
2022-04-14T00:55:26Z,42.805,6.029,13.3000,4.60034,2470.343,2022-4-14T02:57:04Z
2022-04-14T00:58:29Z,42.805,6.029,13.3000,4.60033,2470.38,2022-4-14T03:00:08Z
2022-04-14T01:01:32Z,42.805,6.029,13.3001,4.60033,2470.343,2022-4-14T03:03:11Z
2022-04-14T01:04:36Z,42.805,6.029,13.2995,4.60034,2470.366,2022-4-14T03:06:14Z
2022-04-14T01:07:39Z,42.805,6.029,13.3001,4.60036,2470.404,2022-4-14T03:09:17Z
2022-04-14T01:10:42Z,42.805,6.029,13.2998,4.60035,2470.39,2022-4-14T03:12:20Z
2022-04-14T01:13:45Z,42.805,6.029,13.2998,4.60034,2470.366,2022-4-14T03:15:23Z
2022-04-14T01:16:48Z,42.805,6.029,13.3001,4.60034,2470.357,2022-4-14T03:18:26Z
2022-04-14T01:19:51Z,42.805,6.029,13.3001,4.60037,2470.366,2022-4-14T03:21:29Z
2022-04-14T01:22:54Z,42.805,6.029,13.3000,4.60035,2470.366,2022-4-14T03:24:33Z
2022-04-14T01:25:57Z,42.805,6.029,13.2999,4.60034,2470.353,2022-4-14T03:27:36Z
2022-04-14T01:29:01Z,42.805,6.029,13.2998,4.60035,2470.366,2022-4-14T03:30:39Z
2022-04-14T01:32:04Z,42.805,6.029,13.3000,4.60034,2470.357,2022-4-14T03:33:42Z
2022-04-14T01:35:07Z,42.805,6.029,13.2999,4.60034,2470.39,2022-4-14T03:36:45Z
2022-04-14T01:38:10Z,42.805,6.029,13.2997,4.60035,2470.38,2022-4-14T03:39:48Z
2022-04-14T01:41:13Z,42.805,6.029,13.2998,4.60034,2470.366,2022-4-14T03:42:51Z
2022-04-14T01:44:16Z,42.805,6.029,13.3001,4.60033,2470.366,2022-4-14T03:45:54Z
2022-04-14T01:47:19Z,42.805,6.029,13.2998,4.60034,2470.366,2022-4-14T03:48:58Z
2022-04-14T01:50:22Z,42.805,6.029,13.2999,4.60034,2470.366,2022-4-14T03:52:01Z
2022-04-14T01:53:26Z,42.805,6.029,13.2998,4.60034,2470.366,2022-4-14T03:55:04Z
2022-04-14T01:56:29Z,42.805,6.029,13.3000,4.60036,2470.366,2022-4-14T03:58:07Z
2022-04-14T01:59:32Z,42.805,6.029,13.3000,4.60035,2470.366,2022-4-14T04:01:10Z
2022-04-14T02:02:35Z,42.805,6.029,13.2996,4.60033,2470.404,2022-4-14T04:04:13Z
2022-04-14T02:05:38Z,42.805,6.029,13.3001,4.60036,2470.39,2022-4-14T04:07:16Z
2022-04-14T02:08:41Z,42.805,6.029,13.2998,4.60035,2470.39,2022-4-14T04:10:19Z
2022-04-14T02:11:44Z,42.805,6.029,13.3003,4.60036,2470.366,2022-4-14T04:13:23Z
2022-04-14T02:14:47Z,42.805,6.029,13.2998,4.60033,2470.404,2022-4-14T04:16:26Z
2022-04-14T02:17:50Z,42.805,6.029,13.2999,4.60034,2470.39,2022-4-14T04:19:29Z
2022-04-14T02:20:54Z,42.805,6.029,13.3001,4.60035,2470.39,2022-4-14T04:22:32Z
2022-04-14T02:23:57Z,42.805,6.029,13.2998,4.60036,2470.413,2022-4-14T04:25:35Z
2022-04-14T02:27:00Z,42.805,6.029,13.3000,4.60036,2470.413,2022-4-14T04:28:38Z
2022-04-14T02:30:03Z,42.805,6.029,13.2996,4.60034,2470.39,2022-4-14T04:31:41Z
2022-04-14T02:33:06Z,42.805,6.029,13.3000,4.60036,2470.413,2022-4-14T04:34:44Z
2022-04-14T02:36:09Z,42.805,6.029,13.2997,4.60035,2470.427,2022-4-14T04:37:48Z
2022-04-14T02:39:12Z,42.805,6.029,13.3000,4.60038,2470.427,2022-4-14T04:40:51Z
2022-04-14T02:42:15Z,42.805,6.029,13.3000,4.60035,2470.427,2022-4-14T04:43:54Z
2022-04-14T02:45:19Z,42.805,6.029,13.3000,4.60034,2470.427,2022-4-14T04:46:57Z
2022-04-14T02:48:22Z,42.805,6.029,13.3002,4.60034,2470.413,2022-4-14T04:50:00Z
2022-04-14T02:51:25Z,42.805,6.029,13.2998,4.60036,2470.427,2022-4-14T04:53:03Z
2022-04-14T02:54:28Z,42.805,6.029,13.3001,4.60036,2470.427,2022-4-14T04:56:06Z
2022-04-14T02:57:31Z,42.805,6.029,13.3001,4.60035,2470.437,2022-4-14T04:59:09Z
2022-04-14T03:00:34Z,42.805,6.029,13.3000,4.60034,2470.45,2022-4-14T05:02:12Z
2022-04-14T03:03:37Z,42.805,6.029,13.3000,4.60036,2470.437,2022-4-14T05:05:16Z
2022-04-14T03:06:40Z,42.805,6.029,13.3000,4.60035,2470.437,2022-4-14T05:08:19Z
2022-04-14T03:09:44Z,42.805,6.029,13.2999,4.60036,2470.497,2022-4-14T05:11:22Z
2022-04-14T03:12:47Z,42.805,6.029,13.3000,4.60036,2470.437,2022-4-14T05:14:25Z
2022-04-14T03:15:50Z,42.805,6.029,13.3000,4.60035,2470.413,2022-4-14T05:17:28Z
2022-04-14T03:18:53Z,42.805,6.029,13.2995,4.60034,2470.423,2022-4-14T05:20:31Z
2022-04-14T03:21:56Z,42.805,6.029,13.2996,4.60036,2470.45,2022-4-14T05:23:34Z
2022-04-14T03:24:59Z,42.805,6.029,13.3000,4.60033,2470.437,2022-4-14T05:26:37Z
2022-04-14T03:28:02Z,42.805,6.029,13.3000,4.60035,2470.413,2022-4-14T05:29:41Z
2022-04-14T03:31:05Z,42.805,6.029,13.2997,4.60036,2470.437,2022-4-14T05:32:44Z
2022-04-14T03:34:09Z,42.805,6.029,13.2998,4.60037,2470.474,2022-4-14T05:35:47Z
2022-04-14T03:37:12Z,42.805,6.029,13.2998,4.60036,2470.46,2022-4-14T05:38:50Z
2022-04-14T03:40:15Z,42.805,6.029,13.3001,4.60036,2470.46,2022-4-14T05:41:53Z
2022-04-14T03:43:18Z,42.805,6.029,13.2997,4.60036,2470.437,2022-4-14T05:44:56Z
2022-04-14T03:46:21Z,42.805,6.029,13.2999,4.60034,2470.474,2022-4-14T05:47:59Z
2022-04-14T03:49:24Z,42.805,6.029,13.2998,4.60037,2470.46,2022-4-14T05:51:02Z
2022-04-14T03:52:27Z,42.805,6.029,13.3000,4.60036,2470.46,2022-4-14T05:54:06Z
2022-04-14T03:55:30Z,42.805,6.029,13.3002,4.60036,2470.46,2022-4-14T05:57:09Z
2022-04-14T03:58:34Z,42.805,6.029,13.3000,4.60035,2470.46,2022-4-14T06:00:12Z
2022-04-14T04:01:37Z,42.805,6.029,13.3000,4.60034,2470.46,2022-4-14T06:03:15Z
2022-04-14T04:04:40Z,42.805,6.029,13.2998,4.60035,2470.46,2022-4-14T06:06:18Z
2022-04-14T04:07:43Z,42.805,6.029,13.2998,4.60035,2470.46,2022-4-14T06:09:21Z
2022-04-14T04:10:46Z,42.805,6.029,13.2998,4.60034,2470.483,2022-4-14T06:12:24Z
2022-04-14T04:13:49Z,42.805,6.029,13.3003,4.60035,2470.474,2022-4-14T06:15:27Z
2022-04-14T04:16:52Z,42.805,6.029,13.3000,4.60035,2470.497,2022-4-14T06:18:31Z
2022-04-14T04:19:55Z,42.805,6.029,13.2999,4.60036,2470.46,2022-4-14T06:21:34Z
2022-04-14T04:22:58Z,42.805,6.029,13.2996,4.60036,2470.483,2022-4-14T06:24:37Z
2022-04-14T04:26:02Z,42.805,6.029,13.3002,4.60036,2470.46,2022-4-14T06:27:40Z
2022-04-14T04:29:05Z,42.805,6.029,13.2998,4.60036,2470.46,2022-4-14T06:30:43Z
2022-04-14T04:32:08Z,42.805,6.029,13.3000,4.60037,2470.483,2022-4-14T06:33:46Z
2022-04-14T04:35:11Z,42.805,6.029,13.3002,4.60036,2470.46,2022-4-14T06:36:49Z
2022-04-14T04:38:14Z,42.805,6.029,13.2998,4.60036,2470.46,2022-4-14T06:39:52Z
2022-04-14T04:41:17Z,42.805,6.029,13.2999,4.60037,2470.46,2022-4-14T06:42:56Z
2022-04-14T04:44:20Z,42.805,6.029,13.2999,4.60036,2470.483,2022-4-14T06:45:59Z
2022-04-14T04:47:23Z,42.805,6.029,13.3000,4.60035,2470.483,2022-4-14T06:49:02Z
2022-04-14T04:50:27Z,42.805,6.029,13.3002,4.60036,2470.46,2022-4-14T06:52:05Z
2022-04-14T04:53:30Z,42.805,6.029,13.2996,4.60037,2470.52,2022-4-14T06:55:08Z
2022-04-14T04:56:33Z,42.805,6.029,13.2998,4.60036,2470.507,2022-4-14T06:58:11Z
2022-04-14T04:59:36Z,42.805,6.029,13.3000,4.60034,2470.483,2022-4-14T07:01:14Z
2022-04-14T05:02:39Z,42.805,6.029,13.3002,4.60036,2470.483,2022-4-14T07:04:17Z
2022-04-14T05:05:42Z,42.805,6.029,13.2995,4.60036,2470.46,2022-4-14T07:07:20Z
2022-04-14T05:08:45Z,42.805,6.029,13.2998,4.60036,2470.483,2022-4-14T07:10:24Z
2022-04-14T05:11:48Z,42.805,6.029,13.3000,4.60036,2470.493,2022-4-14T07:13:27Z
2022-04-14T05:14:51Z,42.805,6.029,13.2998,4.60036,2470.474,2022-4-14T07:16:30Z
2022-04-14T05:17:55Z,42.805,6.029,13.2999,4.60036,2470.497,2022-4-14T07:19:33Z
2022-04-14T05:20:58Z,42.805,6.029,13.2998,4.60036,2470.53,2022-4-14T07:22:36Z
2022-04-14T05:24:01Z,42.805,6.029,13.2999,4.60036,2470.52,2022-4-14T07:25:39Z
2022-04-14T05:27:04Z,42.805,6.029,13.2996,4.60036,2470.497,2022-4-14T07:28:42Z
2022-04-14T05:30:07Z,42.805,6.029,13.2999,4.60036,2470.483,2022-4-14T07:31:45Z
2022-04-14T05:33:10Z,42.805,6.029,13.3004,4.60036,2470.497,2022-4-14T07:34:49Z
2022-04-14T05:36:13Z,42.805,6.029,13.2996,4.60036,2470.507,2022-4-14T07:37:52Z
2022-04-14T05:39:16Z,42.805,6.029,13.2998,4.60035,2470.483,2022-4-14T07:40:55Z
2022-04-14T05:42:20Z,42.805,6.029,13.3000,4.60036,2470.483,2022-4-14T07:43:58Z
2022-04-14T05:45:23Z,42.805,6.029,13.2996,4.60036,2470.46,2022-4-14T07:47:01Z
2022-04-14T05:48:26Z,42.805,6.029,13.2997,4.60034,2470.483,2022-4-14T07:50:04Z
2022-04-14T05:51:29Z,42.805,6.029,13.3000,4.60035,2470.474,2022-4-14T07:53:07Z
2022-04-14T05:54:32Z,42.805,6.029,13.2996,4.60036,2470.483,2022-4-14T07:56:10Z
2022-04-14T05:57:35Z,42.805,6.029,13.2998,4.60035,2470.52,2022-4-14T07:59:14Z
2022-04-14T06:00:38Z,42.805,6.029,13.3000,4.60036,2470.483,2022-4-14T08:02:17Z
2022-04-14T06:03:41Z,42.805,6.029,13.3003,4.60037,2470.474,2022-4-14T08:05:20Z
2022-04-14T06:06:45Z,42.805,6.029,13.2998,4.60034,2470.507,2022-4-14T08:08:23Z
2022-04-14T06:09:48Z,42.805,6.029,13.3000,4.60036,2470.507,2022-4-14T08:11:26Z
2022-04-14T06:12:51Z,42.805,6.029,13.3000,4.60035,2470.483,2022-4-14T08:14:29Z
2022-04-14T06:15:54Z,42.805,6.029,13.3000,4.60036,2470.483,2022-4-14T08:17:32Z
2022-04-14T06:18:57Z,42.805,6.029,13.3001,4.60035,2470.46,2022-4-14T08:20:35Z
2022-04-14T06:22:00Z,42.805,6.029,13.3000,4.60035,2470.483,2022-4-14T08:23:38Z
2022-04-14T06:25:03Z,42.805,6.029,13.2998,4.60036,2470.483,2022-4-14T08:26:42Z
2022-04-14T06:28:06Z,42.805,6.029,13.3002,4.60036,2470.46,2022-4-14T08:29:45Z
2022-04-14T06:31:10Z,42.805,6.029,13.3000,4.60035,2470.483,2022-4-14T08:32:48Z
2022-04-14T06:34:13Z,42.805,6.029,13.3001,4.60036,2470.474,2022-4-14T08:35:51Z
2022-04-14T06:37:16Z,42.805,6.029,13.2999,4.60035,2470.474,2022-4-14T08:38:54Z
2022-04-14T06:40:19Z,42.805,6.029,13.3002,4.60036,2470.474,2022-4-14T08:41:57Z
2022-04-14T06:43:22Z,42.805,6.029,13.2998,4.60036,2470.474,2022-4-14T08:45:00Z
2022-04-14T06:46:25Z,42.805,6.029,13.3003,4.60035,2470.483,2022-4-14T08:48:03Z
2022-04-14T06:49:28Z,42.805,6.029,13.3000,4.60035,2470.483,2022-4-14T08:51:07Z
2022-04-14T06:52:31Z,42.805,6.029,13.3000,4.60036,2470.45,2022-4-14T08:54:10Z
2022-04-14T06:55:34Z,42.805,6.029,13.3000,4.60036,2470.483,2022-4-14T08:57:13Z
2022-04-14T06:58:38Z,42.805,6.029,13.3000,4.60035,2470.46,2022-4-14T09:00:16Z
2022-04-14T07:01:41Z,42.805,6.029,13.2998,4.60036,2470.474,2022-4-14T09:03:19Z
2022-04-14T07:04:44Z,42.805,6.029,13.3000,4.60034,2470.474,2022-4-14T09:06:22Z
2022-04-14T07:07:47Z,42.805,6.029,13.3000,4.60034,2470.437,2022-4-14T09:09:25Z
2022-04-14T07:10:50Z,42.805,6.029,13.3000,4.60035,2470.437,2022-4-14T09:12:28Z
2022-04-14T07:13:53Z,42.805,6.029,13.3002,4.60036,2470.46,2022-4-14T09:15:32Z
2022-04-14T07:16:56Z,42.805,6.029,13.2999,4.60035,2470.437,2022-4-14T09:18:35Z
2022-04-14T07:19:59Z,42.805,6.029,13.3000,4.60034,2470.474,2022-4-14T09:21:38Z
2022-04-14T07:23:03Z,42.805,6.029,13.2998,4.60035,2470.437,2022-4-14T09:24:41Z
2022-04-14T07:26:06Z,42.805,6.029,13.3002,4.60036,2470.45,2022-4-14T09:27:44Z
2022-04-14T07:29:09Z,42.805,6.029,13.3000,4.60036,2470.437,2022-4-14T09:30:47Z
2022-04-14T07:32:12Z,42.805,6.029,13.3000,4.60034,2470.427,2022-4-14T09:33:50Z
2022-04-14T07:35:15Z,42.805,6.029,13.3004,4.60036,2470.413,2022-4-14T09:36:53Z
2022-04-14T07:38:18Z,42.805,6.029,13.2996,4.60035,2470.427,2022-4-14T09:39:57Z
2022-04-14T07:41:21Z,42.805,6.029,13.2998,4.60036,2470.437,2022-4-14T09:43:00Z
2022-04-14T07:44:24Z,42.805,6.029,13.2997,4.60036,2470.437,2022-4-14T09:46:03Z
2022-04-14T07:47:28Z,42.805,6.029,13.3003,4.60036,2470.427,2022-4-14T09:49:06Z
2022-04-14T07:50:31Z,42.805,6.029,13.2998,4.60036,2470.413,2022-4-14T09:52:09Z
2022-04-14T07:53:34Z,42.805,6.029,13.2996,4.60034,2470.413,2022-4-14T09:55:12Z
2022-04-14T07:56:37Z,42.805,6.029,13.2996,4.60035,2470.45,2022-4-14T09:58:15Z
2022-04-14T07:59:40Z,42.805,6.029,13.2999,4.60036,2470.413,2022-4-14T10:01:18Z
2022-04-14T08:02:43Z,42.805,6.029,13.3003,4.60035,2470.413,2022-4-14T10:04:21Z
2022-04-14T08:05:46Z,42.805,6.029,13.2998,4.60035,2470.413,2022-4-14T10:07:25Z
2022-04-14T08:08:49Z,42.805,6.029,13.2996,4.60035,2470.427,2022-4-14T10:10:28Z
2022-04-14T08:11:53Z,42.805,6.029,13.2998,4.60035,2470.427,2022-4-14T10:13:31Z
2022-04-14T08:14:56Z,42.805,6.029,13.2998,4.60034,2470.39,2022-4-14T10:16:34Z
2022-04-14T08:17:59Z,42.805,6.029,13.2999,4.60035,2470.39,2022-4-14T10:19:37Z
2022-04-14T08:21:02Z,42.805,6.029,13.3002,4.60034,2470.413,2022-4-14T10:22:40Z
2022-04-14T08:24:05Z,42.805,6.029,13.2998,4.60035,2470.39,2022-4-14T10:25:43Z
2022-04-14T08:27:08Z,42.805,6.029,13.2998,4.60034,2470.38,2022-4-14T10:28:46Z
2022-04-14T08:30:11Z,42.805,6.029,13.3003,4.60035,2470.427,2022-4-14T10:31:50Z
2022-04-14T08:33:14Z,42.805,6.029,13.3000,4.60035,2470.366,2022-4-14T10:34:53Z
2022-04-14T08:36:18Z,42.805,6.029,13.2999,4.60035,2470.413,2022-4-14T10:37:56Z
2022-04-14T08:39:21Z,42.805,6.029,13.3000,4.60034,2470.366,2022-4-14T10:40:59Z
2022-04-14T08:42:24Z,42.805,6.029,13.2998,4.60035,2470.343,2022-4-14T10:44:02Z
2022-04-14T08:45:27Z,42.805,6.029,13.3000,4.60036,2470.366,2022-4-14T10:47:05Z
2022-04-14T08:48:30Z,42.805,6.029,13.3002,4.60034,2470.39,2022-4-14T10:50:08Z
2022-04-14T08:51:33Z,42.805,6.029,13.2998,4.60034,2470.404,2022-4-14T10:53:12Z
2022-04-14T08:54:36Z,42.805,6.029,13.3000,4.60035,2470.38,2022-4-14T10:56:15Z
2022-04-14T08:57:39Z,42.805,6.029,13.2998,4.60034,2470.427,2022-4-14T10:59:18Z
2022-04-14T09:00:43Z,42.805,6.029,13.2998,4.60035,2470.343,2022-4-14T11:02:21Z
2022-04-14T09:03:46Z,42.805,6.029,13.3001,4.60037,2470.343,2022-4-14T11:05:24Z
2022-04-14T09:06:49Z,42.805,6.029,13.3004,4.60036,2470.366,2022-4-14T11:08:27Z
2022-04-14T09:09:52Z,42.805,6.029,13.3001,4.60035,2470.343,2022-4-14T11:11:30Z
2022-04-14T09:12:55Z,42.805,6.029,13.3000,4.60035,2470.33,2022-4-14T11:14:33Z
2022-04-14T09:15:58Z,42.805,6.029,13.2998,4.60036,2470.366,2022-4-14T11:17:37Z
2022-04-14T09:19:01Z,42.805,6.029,13.2999,4.60035,2470.366,2022-4-14T11:20:40Z
2022-04-14T09:22:04Z,42.805,6.029,13.2996,4.60036,2470.32,2022-4-14T11:23:43Z
2022-04-14T09:25:08Z,42.805,6.029,13.2997,4.60036,2470.357,2022-4-14T11:26:46Z
2022-04-14T09:28:11Z,42.805,6.029,13.2998,4.60034,2470.366,2022-4-14T11:29:49Z
2022-04-14T09:31:14Z,42.805,6.029,13.3000,4.60034,2470.343,2022-4-14T11:32:52Z
2022-04-14T09:34:17Z,42.805,6.029,13.2998,4.60034,2470.343,2022-4-14T11:35:55Z
2022-04-14T09:37:20Z,42.805,6.029,13.3000,4.60034,2470.343,2022-4-14T11:38:58Z
2022-04-14T09:40:23Z,42.805,6.029,13.2998,4.60036,2470.357,2022-4-14T11:42:02Z
2022-04-14T09:43:26Z,42.805,6.029,13.2999,4.60036,2470.357,2022-4-14T11:45:05Z
2022-04-14T09:46:29Z,42.805,6.029,13.3000,4.60034,2470.357,2022-4-14T11:48:08Z
2022-04-14T09:49:33Z,42.805,6.029,13.2996,4.60035,2470.334,2022-4-14T11:51:11Z
2022-04-14T09:52:36Z,42.805,6.029,13.3000,4.60036,2470.32,2022-4-14T11:54:14Z
2022-04-14T09:55:39Z,42.805,6.029,13.2996,4.60034,2470.334,2022-4-14T11:57:17Z
2022-04-14T09:58:42Z,42.805,6.029,13.2996,4.60034,2470.273,2022-4-14T12:00:20Z
2022-04-14T10:01:45Z,42.805,6.029,13.3000,4.60036,2470.273,2022-4-14T12:03:23Z
2022-04-14T10:04:48Z,42.805,6.029,13.2997,4.60033,2470.32,2022-4-14T12:06:27Z
2022-04-14T10:07:51Z,42.805,6.029,13.3000,4.60034,2470.297,2022-4-14T12:09:30Z
2022-04-14T10:10:54Z,42.805,6.029,13.3001,4.60035,2470.297,2022-4-14T12:12:33Z
2022-04-14T10:13:58Z,42.805,6.029,13.2999,4.60034,2470.297,2022-4-14T12:15:36Z
2022-04-14T10:17:01Z,42.805,6.029,13.3000,4.60034,2470.273,2022-4-14T12:18:39Z
2022-04-14T10:20:04Z,42.805,6.029,13.3000,4.60033,2470.32,2022-4-14T12:21:42Z
2022-04-14T10:23:07Z,42.805,6.029,13.3000,4.60034,2470.287,2022-4-14T12:24:45Z
2022-04-14T10:26:10Z,42.805,6.029,13.2998,4.60035,2470.31,2022-4-14T12:27:48Z
2022-04-14T10:29:13Z,42.805,6.029,13.2998,4.60033,2470.273,2022-4-14T12:30:52Z
2022-04-14T10:32:16Z,42.805,6.029,13.2999,4.60035,2470.273,2022-4-14T12:33:55Z
2022-04-14T10:35:19Z,42.805,6.029,13.3002,4.60035,2470.273,2022-4-14T12:36:58Z
2022-04-14T10:38:23Z,42.805,6.029,13.3001,4.60035,2470.273,2022-4-14T12:40:01Z
2022-04-14T10:41:26Z,42.805,6.029,13.2998,4.60035,2470.273,2022-4-14T12:43:04Z
2022-04-14T10:44:29Z,42.805,6.029,13.3000,4.60035,2470.287,2022-4-14T12:46:07Z
2022-04-14T10:47:32Z,42.805,6.029,13.3000,4.60035,2470.31,2022-4-14T12:49:10Z
2022-04-14T10:50:35Z,42.805,6.029,13.3001,4.60034,2470.25,2022-4-14T12:52:13Z
2022-04-14T10:53:38Z,42.805,6.029,13.3000,4.60034,2470.25,2022-4-14T12:55:17Z
2022-04-14T10:56:41Z,42.805,6.029,13.2999,4.60034,2470.273,2022-4-14T12:58:20Z
2022-04-14T10:59:44Z,42.805,6.029,13.3002,4.60035,2470.264,2022-4-14T13:01:23Z
2022-04-14T11:02:48Z,42.805,6.029,13.2998,4.60034,2470.25,2022-4-14T13:04:26Z
2022-04-14T11:05:51Z,42.805,6.029,13.2997,4.60034,2470.227,2022-4-14T13:07:29Z
2022-04-14T11:08:54Z,42.805,6.029,13.2994,4.60034,2470.25,2022-4-14T13:10:32Z
2022-04-14T11:11:57Z,42.805,6.029,13.2998,4.60034,2470.25,2022-4-14T13:13:35Z
2022-04-14T11:15:00Z,42.805,6.029,13.2999,4.60035,2470.273,2022-4-14T13:16:38Z
2022-04-14T11:18:03Z,42.805,6.029,13.2996,4.60035,2470.264,2022-4-14T13:19:42Z
2022-04-14T11:21:06Z,42.805,6.029,13.2997,4.60034,2470.24,2022-4-14T13:22:45Z
2022-04-14T11:24:09Z,42.805,6.029,13.2998,4.60033,2470.273,2022-4-14T13:25:48Z
2022-04-14T11:27:13Z,42.805,6.029,13.2998,4.60035,2470.25,2022-4-14T13:28:51Z
2022-04-14T11:30:16Z,42.805,6.029,13.2998,4.60035,2470.273,2022-4-14T13:31:54Z
2022-04-14T11:33:19Z,42.805,6.029,13.2996,4.60036,2470.227,2022-4-14T13:34:57Z
2022-04-14T11:36:22Z,42.805,6.029,13.3000,4.60034,2470.203,2022-4-14T13:38:00Z
2022-04-14T11:39:25Z,42.805,6.029,13.2998,4.60035,2470.264,2022-4-14T13:41:03Z
2022-04-14T11:42:28Z,42.805,6.029,13.2998,4.60034,2470.227,2022-4-14T13:44:07Z
2022-04-14T11:45:31Z,42.805,6.029,13.3002,4.60034,2470.24,2022-4-14T13:47:10Z
2022-04-14T11:48:34Z,42.805,6.029,13.2998,4.60034,2470.227,2022-4-14T13:50:13Z
2022-04-14T11:51:38Z,42.805,6.029,13.2997,4.60034,2470.227,2022-4-14T13:53:16Z
2022-04-14T11:54:41Z,42.805,6.029,13.3000,4.60035,2470.25,2022-4-14T13:56:19Z
2022-04-14T11:57:44Z,42.805,6.029,13.2997,4.60035,2470.264,2022-4-14T13:59:22Z
2022-04-14T12:00:47Z,42.805,6.029,13.3000,4.60033,2470.227,2022-4-14T14:02:25Z
2022-04-14T12:03:50Z,42.805,6.029,13.2999,4.60035,2470.25,2022-4-14T14:05:28Z
2022-04-14T12:06:53Z,42.805,6.029,13.3003,4.60035,2470.287,2022-4-14T14:08:32Z
2022-04-14T12:09:56Z,42.805,6.029,13.3000,4.60034,2470.24,2022-4-14T14:11:35Z
2022-04-14T12:12:59Z,42.805,6.029,13.2997,4.60034,2470.25,2022-4-14T14:14:38Z
2022-04-14T12:16:03Z,42.805,6.029,13.3001,4.60033,2470.25,2022-4-14T14:17:41Z
2022-04-14T12:19:06Z,42.805,6.029,13.2998,4.60034,2470.25,2022-4-14T14:20:44Z
2022-04-14T12:22:09Z,42.805,6.029,13.2997,4.60033,2470.227,2022-4-14T14:23:47Z
2022-04-14T12:25:12Z,42.805,6.029,13.2996,4.60033,2470.25,2022-4-14T14:26:50Z
2022-04-14T12:28:15Z,42.805,6.029,13.2998,4.60034,2470.227,2022-4-14T14:29:53Z
2022-04-14T12:31:18Z,42.805,6.029,13.3000,4.60036,2470.24,2022-4-14T14:32:57Z
2022-04-14T12:34:21Z,42.805,6.029,13.2996,4.60035,2470.227,2022-4-14T14:36:00Z
2022-04-14T12:37:24Z,42.805,6.029,13.3000,4.60036,2470.217,2022-4-14T14:39:03Z
2022-04-14T12:40:28Z,42.805,6.029,13.2998,4.60034,2470.213,2022-4-14T14:42:06Z
2022-04-14T12:43:31Z,42.805,6.029,13.2998,4.60034,2470.25,2022-4-14T14:45:09Z
2022-04-14T12:46:34Z,42.805,6.029,13.2998,4.60034,2470.24,2022-4-14T14:48:12Z
2022-04-14T12:49:37Z,42.805,6.029,13.2998,4.60034,2470.25,2022-4-14T14:51:15Z
2022-04-14T12:52:40Z,42.805,6.029,13.2997,4.60033,2470.217,2022-4-14T14:54:18Z
2022-04-14T12:55:43Z,42.805,6.029,13.2996,4.60034,2470.25,2022-4-14T14:57:22Z
2022-04-14T12:58:46Z,42.805,6.029,13.2998,4.60033,2470.217,2022-4-14T15:00:25Z
2022-04-14T13:01:49Z,42.805,6.029,13.2998,4.60033,2470.227,2022-4-14T15:03:28Z
2022-04-14T13:04:53Z,42.805,6.029,13.3004,4.60034,2470.25,2022-4-14T15:06:31Z
2022-04-14T13:07:56Z,42.805,6.029,13.3000,4.60035,2470.264,2022-4-14T15:09:34Z
2022-04-14T13:10:59Z,42.805,6.029,13.2996,4.60034,2470.273,2022-4-14T15:12:37Z
2022-04-14T13:14:02Z,42.805,6.029,13.2998,4.60034,2470.25,2022-4-14T15:15:40Z
2022-04-14T13:17:05Z,42.805,6.029,13.3001,4.60033,2470.227,2022-4-14T15:18:43Z
2022-04-14T13:20:08Z,42.805,6.029,13.2996,4.60034,2470.264,2022-4-14T15:21:47Z
2022-04-14T13:23:11Z,42.805,6.029,13.2998,4.60033,2470.203,2022-4-14T15:24:50Z
2022-04-14T13:26:14Z,42.805,6.029,13.2998,4.60033,2470.25,2022-4-14T15:27:53Z
2022-04-14T13:29:18Z,42.805,6.029,13.3000,4.60035,2470.25,2022-4-14T15:30:56Z
2022-04-14T13:32:21Z,42.805,6.029,13.2997,4.60035,2470.25,2022-4-14T15:33:59Z
2022-04-14T13:35:24Z,42.805,6.029,13.3000,4.60033,2470.227,2022-4-14T15:37:02Z
2022-04-14T13:38:27Z,42.805,6.029,13.3000,4.60036,2470.227,2022-4-14T15:40:05Z
2022-04-14T13:41:30Z,42.805,6.029,13.3000,4.60034,2470.297,2022-4-14T15:43:08Z
2022-04-14T13:44:33Z,42.805,6.029,13.2997,4.60034,2470.25,2022-4-14T15:46:12Z
2022-04-14T13:47:36Z,42.805,6.029,13.3001,4.60037,2470.227,2022-4-14T15:49:15Z
2022-04-14T13:50:39Z,42.805,6.029,13.2998,4.60035,2470.24,2022-4-14T15:52:18Z
2022-04-14T13:53:43Z,42.805,6.029,13.3004,4.60034,2470.25,2022-4-14T15:55:21Z
2022-04-14T13:56:46Z,42.805,6.029,13.3002,4.60034,2470.227,2022-4-14T15:58:24Z
2022-04-14T13:59:49Z,42.805,6.029,13.3000,4.60034,2470.25,2022-4-14T16:01:27Z
2022-04-14T14:02:52Z,42.805,6.029,13.2997,4.60034,2470.25,2022-4-14T16:04:30Z
2022-04-14T14:05:55Z,42.805,6.029,13.2999,4.60035,2470.273,2022-4-14T16:07:33Z
2022-04-14T14:08:58Z,42.805,6.029,13.3000,4.60033,2470.264,2022-4-14T16:10:37Z
2022-04-14T14:12:01Z,42.805,6.029,13.3001,4.60036,2470.264,2022-4-14T16:13:40Z
2022-04-14T14:15:04Z,42.805,6.029,13.2997,4.60036,2470.273,2022-4-14T16:16:43Z
2022-04-14T14:18:08Z,42.805,6.029,13.2998,4.60035,2470.264,2022-4-14T16:19:46Z
2022-04-14T14:21:11Z,42.805,6.029,13.3002,4.60035,2470.287,2022-4-14T16:22:49Z
2022-04-14T14:24:14Z,42.805,6.029,13.2998,4.60034,2470.273,2022-4-14T16:25:52Z
2022-04-14T14:27:17Z,42.805,6.029,13.3000,4.60035,2470.297,2022-4-14T16:28:55Z
2022-04-14T14:30:20Z,42.805,6.029,13.2998,4.60036,2470.25,2022-4-14T16:31:58Z
2022-04-14T14:33:23Z,42.805,6.029,13.3000,4.60034,2470.273,2022-4-14T16:35:02Z
2022-04-14T14:36:26Z,42.805,6.029,13.2998,4.60035,2470.287,2022-4-14T16:38:05Z
2022-04-14T14:39:29Z,42.805,6.029,13.2998,4.60035,2470.287,2022-4-14T16:41:08Z
2022-04-14T14:42:33Z,42.805,6.029,13.2999,4.60034,2470.227,2022-4-14T16:44:11Z
2022-04-14T14:45:36Z,42.805,6.029,13.3000,4.60036,2470.287,2022-4-14T16:47:14Z
2022-04-14T14:48:39Z,42.805,6.029,13.3000,4.60036,2470.25,2022-4-14T16:50:17Z
2022-04-14T14:51:42Z,42.805,6.029,13.2998,4.60036,2470.31,2022-4-14T16:53:20Z
2022-04-14T14:54:45Z,42.805,6.029,13.2999,4.60034,2470.25,2022-4-14T16:56:23Z
2022-04-14T14:57:48Z,42.805,6.029,13.2999,4.60034,2470.264,2022-4-14T16:59:27Z
2022-04-14T15:00:51Z,42.805,6.029,13.2999,4.60035,2470.287,2022-4-14T17:02:30Z
2022-04-14T15:03:54Z,42.805,6.029,13.3001,4.60035,2470.25,2022-4-14T17:05:33Z
2022-04-14T15:06:58Z,42.805,6.029,13.3000,4.60034,2470.287,2022-4-14T17:08:36Z
2022-04-14T15:10:01Z,42.805,6.029,13.2998,4.60036,2470.32,2022-4-14T17:11:39Z
2022-04-14T15:13:04Z,42.805,6.029,13.2996,4.60034,2470.287,2022-4-14T17:14:42Z